Alexandria, LA

1:04 AM CDT on April 23, 2017 (GMT -0500)
Alexandria International

Weather History for KAEX - August, 2014

Change the Weather History Date:

Thursday, August 7, 2014

  Actual Average Record
Temperature  
Mean Temperature 83 °F 83 °F  
Max Temperature 91 °F 93 °F 104 °F (1947)
Min Temperature 74 °F 72 °F 63 °F (1957)
Cooling Degree Days 18 18  
Month to date cooling degree days 112 126  
Year to date cooling degree days 1491 1572  
Since 1 June cooling degree days 1080 1118  
Growing Degree Days 32 (Base 50)    
Moisture  
Dew Point 75 °F    
Average Humidity 78    
Maximum Humidity 100    
Minimum Humidity 56    
Precipitation  
Precipitation T in 0.12 in 5.70 in (1998)
Month to date precipitation 1.44 0.79  
Year to date precipitation 27.69 33.52  
Sea Level Pressure  
Sea Level Pressure 29.95 in    
Wind  
Wind Speed 5 mph (South)    
Max Wind Speed 14 mph    
Max Gust Speed 18 mph    
Visibility 9 miles    
Events Thunderstorm    
T = Trace of Precipitation, MM = Missing Value Source: NWS Daily Summary

Daily Weather History Graph

Daily Weather History Graph

Search for Another Location

Airport or City:

Trip Planner

Search our weather history database for the weather conditions in past years. The results will help you decide how hot, cold, wet, or windy it might be!

Date:

Astronomy

Aug. 07, 2014 Rise Set
Actual Time 6:30 AM CDT 8:00 PM CDT
Civil Twilight 6:04 AM CDT 8:26 PM CDT
Nautical Twilight 5:33 AM CDT 8:57 PM CDT
Astronomical Twilight 5:00 AM CDT 9:30 PM CDT
Moon 5:14 PM CDT (8/7) 3:04 AM CDT (8/7)
Length of Visible Light 14h 22m
Length of Day
13h 30m
Waxing Gibbous, 87% of the Moon is Illuminated
Aug 7
Waxing Gibbous
Aug 10
Full
Aug 17
Last Quarter
Aug 25
New
Sep 2
First Quarter

Hourly Weather History & Observations

Time (CDT) Temp. Heat Index Dew Point Humidity Pressure Visibility Wind Dir Wind Speed Gust Speed Precip Events Conditions
12:53 AM 78.1 °F - 75.0 °F 90% 29.99 in 8.0 mi SE 5.8 mph - N/A   Clear
1:53 AM 77.0 °F - 75.0 °F 94% 29.98 in 8.0 mi SE 4.6 mph - N/A   Clear
2:53 AM 77.0 °F - 73.9 °F 90% 29.96 in 10.0 mi SSE 3.5 mph - N/A   Clear
3:53 AM 75.9 °F - 73.9 °F 94% 29.97 in 8.0 mi SSE 3.5 mph - N/A   Clear
4:53 AM 75.0 °F - 73.0 °F 94% 29.98 in 8.0 mi Calm Calm - N/A   Clear
5:53 AM 73.9 °F - 73.0 °F 97% 29.99 in 6.0 mi SSE 3.5 mph - N/A   Clear
6:53 AM 73.9 °F - 73.0 °F 97% 30.00 in 6.0 mi Calm Calm - N/A   Clear
7:53 AM 78.1 °F - 75.0 °F 90% 30.01 in 9.0 mi Calm Calm - N/A   Clear
8:53 AM 82.0 °F 90.2 °F 77.0 °F 85% 30.01 in 10.0 mi SW 4.6 mph - N/A   Clear
9:53 AM 84.9 °F 95.3 °F 77.0 °F 77% 30.00 in 10.0 mi Variable 4.6 mph - N/A   Mostly Cloudy
10:53 AM 89.1 °F 100.2 °F 75.9 °F 65% 29.98 in 10.0 mi Variable 5.8 mph - N/A   Mostly Cloudy
11:53 AM 88.0 °F 98.5 °F 75.9 °F 67% 30.00 in 10.0 mi SSW 10.4 mph - 0.00 in   Partly Cloudy
12:53 PM 90.0 °F 102.5 °F 77.0 °F 65% 29.97 in 10.0 mi South 11.5 mph - N/A   Clear
1:53 PM 87.1 °F 97.3 °F 75.9 °F 69% 29.96 in 10.0 mi South 6.9 mph - N/A   Clear
2:01 PM 88.0 °F 97.5 °F 75.0 °F 65% 29.95 in 10.0 mi South 5.8 mph - N/A Thunderstorm Clear
2:16 PM 88.0 °F 97.5 °F 75.0 °F 65% 29.94 in 10.0 mi South 5.8 mph - N/A   Clear
2:53 PM 89.1 °F 101.4 °F 77.0 °F 67% 29.94 in 10.0 mi South 8.1 mph - N/A   Clear
3:53 PM 91.0 °F 100.4 °F 73.9 °F 57% 29.91 in 10.0 mi SSW 6.9 mph - N/A   Clear
4:53 PM 90.0 °F 96.4 °F 71.1 °F 54% 29.90 in 10.0 mi SW 6.9 mph - N/A   Clear
5:53 PM 88.0 °F 93.8 °F 71.1 °F 57% 29.90 in 10.0 mi SW 5.8 mph - N/A   Clear
6:53 PM 87.1 °F 95.4 °F 73.9 °F 65% 29.89 in 10.0 mi SSE 6.9 mph - N/A   Clear
7:53 PM 82.9 °F 88.8 °F 73.0 °F 72% 29.89 in 10.0 mi SSE 3.5 mph - N/A   Clear
8:53 PM 80.1 °F 84.5 °F 73.9 °F 81% 29.90 in 10.0 mi SSE 4.6 mph - N/A   Clear
9:53 PM 79.0 °F - 75.0 °F 88% 29.91 in 9.0 mi SE 5.8 mph - N/A   Clear
10:53 PM 78.1 °F - 75.0 °F 90% 29.92 in 9.0 mi SSE 5.8 mph - N/A   Clear
11:53 PM 78.1 °F - 75.0 °F 90% 29.93 in 7.0 mi Calm Calm - N/A   Clear